Tracking 28052 objects as of 24-Sep-2023
HD Live streaming from Space Station
objects crossing your sky now

THORAD DELTA 1 DEB

Track THORAD DELTA 1 DEB now!
10-day predictions


NORAD ID: 8152
Int'l Code: 1974-089S
Perigee: 1,383.8 km
Apogee: 1,476.8 km
Inclination: 101.8 °
Period: 114.3 minutes
Semi major axis: 7801 km
RCS: 0.0989 m2 (small)
Launch date: November 15, 1974
Source: United States (US)
Launch site: AIR FORCE WESTERN TEST RANGE (AFWTR)

Note: This is SATELLITE DEBRIS
Your satellite tracking list
Your tracking list is empty




NASA's NSSDC Master Catalog

Two Line Element Set (TLE):
1 08152U 74089S   23267.52718315  .00000049  00000-0  54093-3 0  9993
2 08152 101.7940 251.1560 0059642 130.7984 347.4461 12.59943386245154
Source of the keplerian elements: AFSPC